129  
ASUS42 KKEY 251210  
RWRKEY  
 
FLORIDA REGIONAL WEATHER ROUNDUP FOR THE FLORIDA KEYS  
NATIONAL WEATHER SERVICE KEY WEST FLORIDA  
700 AM EST SUN JAN 25 2015  
   
..SOUTH FLORIDA AND THE KEYS
 
 
 
CITY SKY/WX TMP DP RH WIND PRES REMARKS
 
FORT MYERS PTCLDY 48 46 93 CALM 30.09R  
SW REGIONAL AP CLEAR 46 44 93 CALM 30.10R  
NAPLES CLEAR 48 46 93 NE5 30.08R  
MIAMI PTCLDY 53 48 83 NW5 30.08R  
WEST KENDALL CLEAR 48 45 89 NW7 30.08R WCI 45  
HOMESTEAD CLEAR 50 47 88 NW5 30.08R  
MARATHON CLEAR 59 56 89 N12 30.06R  
BOCA CHICA NAS MOCLDY 65 51 60 N10 30.06R  
KEY WEST INTL CLOUDY 65 54 67 N10 30.07R  
   
..INTERNATIONAL WEATHER
 
 
 
CITY SKY/WX TMP DP RH WIND PRES REMARKS
 
NASSAU BAHAMAS NOT AVBL  
CANCUN MEXICO CLEAR 57 55 94 NW5 30.07R  
COZUMEL MEXICO CLEAR 64 61 88 N13 30.07R  
 
ADJACENT COASTAL WATERS...  
 
STATION/POSITION TIME SKY/WX TEMP WIND PRES WAVE
 
AIR SEA DIR/SP/G HT/PER  
(UTC) (F) (DEG/KT/KT) (MB) (FT/S)  
PULASKI SHOAL LI NOT AVBL  
SAND KEY NOT AVBL  
SOMBRERO KEY NOT AVBL  
LONG KEY NOT AVBL  
MOLASSES REEF NOT AVBL  
FOWEY ROCKS NOT AVBL  
BUOY 42080 NOT AVBL  
 

 
 
CLICK HERE TO GO TO PREVIOUS BULLETINS.

The Nexlab FL Page Main Text Page